DW9636 Weather Reports


Display with metric or nautical units.
time (UTC)temp
F
wind
direction
speed
MPH
gust
MPH
rain 1hr
in
rain 24hr
in
rain mn
in
humidity
%
barometer
mb
20260504044541 56 309 0.0 0.0 0.00 0.00 0.00 55 1007.5
20260504043049 58 309 0.0 0.0 0.00 0.00 0.00 52 1007.5
20260504041541 60 309 0.0 0.0 0.00 0.00 0.00 49 1007.2
20260504040048 61 309 0.0 0.0 0.00 0.00 0.00 48 1007.0
20260504034543 61 309 0.0 0.0 0.00 0.00 0.00 49 1006.9
20260504033040 62 309 0.0 0.0 0.00 0.00 0.00 48 1006.9
20260504031544 63 309 0.0 0.0 0.00 0.00 0.00 47 1006.8
20260504030039 64 309 0.0 0.0 0.00 0.00 0.00 44 1006.7
20260504024547 66 309 0.0 0.0 0.00 0.00 0.00 42 1006.5
20260504023038 67 309 0.0 0.0 0.00 0.00 0.00 41 1006.4
20260504021538 67 309 0.0 0.0 0.00 0.00 0.00 40 1006.3
20260504020042 67 309 0.0 0.0 0.00 0.00 0.00 38 1006.4
20260504014535 67 309 0.0 0.0 0.00 0.00 0.00 39 1006.6
20260504013037 67 309 0.0 0.0 0.00 0.00 0.00 42 1006.6
20260504011534 68 350 0.0 0.0 0.00 0.00 0.00 41 1006.7
20260504010033 69 349 0.0 0.0 0.00 0.00 0.00 39 1006.9
20260504004536 69 5 1.0 0.0 0.00 0.00 0.00 37 1007.0
20260504003040 70 14 1.0 0.0 0.00 0.00 0.00 37 1007.2
20260504001538 69 11 0.0 0.0 0.00 0.00 0.00 37 1006.9
20260504000052 67 19 0.0 0.0 0.00 0.00 0.00 43 1006.7
20260503234527 67 61 0.0 0.0 0.00 0.00 0.00 49 1007.3
20260503233026 69 61 1.0 0.0 0.00 0.00 0.00 38 1008.1
20260503231526 73 329 1.0 0.0 0.00 0.00 0.00 31 1007.4
20260503230024 72 5 0.0 0.0 0.00 0.00 0.00 34 1007.6
20260503224523 71 5 0.0 0.0 0.00 0.00 0.00 34 1007.7
20260503223021 71 5 0.0 0.0 0.00 0.00 0.00 33 1008.0
20260503221518 70 13 0.0 0.0 0.00 0.00 0.00 34 1008.2
20260503220017 69 13 0.0 0.0 0.00 0.00 0.00 40 1008.4
20260503214517 68 46 0.0 0.0 0.00 0.00 0.00 41 1008.7
20260503213015 67 40 0.0 0.0 0.00 0.00 0.00 43 1008.8
20260503211516 67 57 0.0 0.0 0.00 0.00 0.00 51 1008.9
20260503210012 72 62 1.0 0.0 0.00 0.00 0.00 34 1009.1
20260503204511 76 53 1.0 0.0 0.00 0.00 0.00 29 1008.7
20260503203018 76 348 1.0 0.0 0.00 0.00 0.00 31 1008.8
20260503201502 76 5 0.0 0.0 0.00 0.00 0.00 31 1009.0
20260503200100 75 53 1.0 0.0 0.00 0.00 0.00 31 1009.3
20260503194559 75 21 0.0 0.0 0.00 0.00 0.00 32 1009.6
20260503193054 73 24 1.0 0.0 0.00 0.00 0.00 33 1009.8
20260503191551 73 342 1.0 0.0 0.00 0.00 0.00 34 1010.2
20260503190048 72 32 1.0 0.0 0.00 0.00 0.00 34 1010.4
20260503184546 72 5 0.0 0.0 0.00 0.00 0.00 39 1010.4
20260503183045 70 47 0.0 0.0 0.00 0.00 0.00 37 1010.6
20260503181537 69 350 0.0 0.0 0.00 0.00 0.00 39 1010.6
20260503180034 67 355 0.0 0.0 0.00 0.00 0.00 39 1010.8
20260503174530 66 346 0.0 0.0 0.00 0.00 0.00 46 1011.0
20260503173042 65 343 0.0 0.0 0.00 0.00 0.00 48 1011.2
20260503171533 64 355 0.0 0.0 0.00 0.00 0.00 50 1011.4
20260503081508 45 360 0.0 0.0 0.00 0.00 0.00 82 1011.6
20260503071559 50 360 0.0 0.0 0.00 0.00 0.00 75 1011.5